• In Austria
  • List of Countries
  • For 7 days
  • Water Temperature
  • Satellite Maps
  • Weather Map
  • News
  • Weather Widgets
  • user-avatar
    Login

    Hourly Weather Yoro

    Today, 16 August, Thursday

    Time Temperature Precipitation Wind Pressure Humidity
    00:00 +20°C° 0.1 mm 0 mps 700 mmHg 98%
    01:00 +20°C° 0 mm 0 mps 700 mmHg 98%
    02:00 +19°C° 0 mm 0 mps 700 mmHg 98%
    03:00 +19°C° 0 mm 0 mps 700 mmHg 98%
    04:00 +19°C° 0 mm 0 mps 700 mmHg 98%
    05:00 +19°C° 0 mm 0 mps 700 mmHg 98%
    06:00 +19°C° 0 mm 0 mps 700 mmHg 97%
    07:00 +22°C° 0 mm 0 mps 701 mmHg 86%
    08:00 +24°C° 0 mm 0 mps 701 mmHg 75%
    09:00 +27°C° 0 mm 0 mps 702 mmHg 63%
    10:00 +29°C° 0.1 mm 1 mps 702 mmHg 61%
    11:00 +30°C° 0.1 mm 1 mps 702 mmHg 59%
    12:00 +31°C° 0.1 mm 1 mps 702 mmHg 57%
    13:00 +30°C° 1 mm 1 mps 701 mmHg 61%
    14:00 +30°C° 1 mm 1 mps 701 mmHg 64%
    15:00 +30°C° 1 mm 1 mps 701 mmHg 68%
    16:00 +28°C° 2.2 mm 1 mps 700 mmHg 76%
    17:00 +26°C° 2.2 mm 1 mps 700 mmHg 83%
    18:00 +24°C° 2.2 mm 1 mps 700 mmHg 91%
    19:00 +24°C° 2.1 mm 1 mps 701 mmHg 93%
    20:00 +23°C° 2.1 mm 1 mps 701 mmHg 94%
    21:00 +21°C° 2.1 mm 0 mps 702 mmHg 96%
    22:00 +21°C° 0.3 mm 0 mps 702 mmHg 96%
    23:00 +21°C° 0.3 mm 0 mps 702 mmHg 96%

    Tomorrow, 17 August, Friday

    Time Temperature Precipitation Wind Pressure Humidity
    00:00 +20°C° 0.3 mm 0 mps 701 mmHg 97%
    01:00 +20°C° 0.1 mm 0 mps 701 mmHg 97%
    02:00 +20°C° 0.1 mm 0 mps 701 mmHg 97%
    03:00 +20°C° 0.1 mm 0 mps 700 mmHg 97%
    04:00 +20°C° 0 mm 0 mps 700 mmHg 97%
    05:00 +19°C° 0 mm 0 mps 701 mmHg 97%
    06:00 +19°C° 0 mm 0 mps 701 mmHg 97%
    07:00 +22°C° 0 mm 0 mps 701 mmHg 87%
    08:00 +24°C° 0 mm 0 mps 702 mmHg 77%
    09:00 +27°C° 0 mm 0 mps 703 mmHg 68%
    10:00 +27°C° 0.7 mm 0 mps 702 mmHg 68%
    11:00 +30°C° 0.7 mm 1 mps 702 mmHg 67%
    12:00 +30°C° 0.7 mm 1 mps 702 mmHg 67%
    13:00 +30°C° 2.1 mm 1 mps 701 mmHg 71%
    14:00 +30°C° 2.1 mm 1 mps 701 mmHg 74%
    15:00 +29°C° 2.1 mm 1 mps 700 mmHg 77%
    16:00 +28°C° 1.9 mm 1 mps 700 mmHg 82%
    17:00 +26°C° 1.9 mm 1 mps 700 mmHg 88%
    18:00 +24°C° 1.9 mm 1 mps 700 mmHg 93%
    19:00 +24°C° 1.1 mm 1 mps 701 mmHg 93%
    20:00 +24°C° 1.1 mm 1 mps 701 mmHg 94%
    21:00 +23°C° 1.1 mm 1 mps 702 mmHg 95%
    22:00 +23°C° 0.1 mm 1 mps 702 mmHg 95%
    23:00 +23°C° 0.1 mm 1 mps 702 mmHg 95%

    Day after tomorrow, 18 August, Saturday

    Time Temperature Precipitation Wind Pressure Humidity
    00:00 +23°C° 0.1 mm 1 mps 701 mmHg 95%
    01:00 +22°C° 0 mm 1 mps 701 mmHg 95%
    02:00 +20°C° 0 mm 0 mps 701 mmHg 95%
    03:00 +20°C° 0 mm 0 mps 700 mmHg 95%
    04:00 +20°C° 0 mm 0 mps 700 mmHg 95%
    05:00 +20°C° 0 mm 0 mps 700 mmHg 95%
    06:00 +19°C° 0 mm 0 mps 701 mmHg 95%
    07:00 +22°C° 0 mm 0 mps 701 mmHg 86%
    08:00 +24°C° 0 mm 0 mps 702 mmHg 77%
    09:00 +26°C° 0 mm 0 mps 703 mmHg 68%
    10:00 +29°C° 0 mm 1 mps 702 mmHg 63%
    11:00 +30°C° 0 mm 1 mps 702 mmHg 58%
    12:00 +31°C° 0 mm 1 mps 702 mmHg 52%
    13:00 +30°C° 0.2 mm 1 mps 701 mmHg 58%
    14:00 +30°C° 0.2 mm 1 mps 700 mmHg 63%
    15:00 +29°C° 0.2 mm 1 mps 699 mmHg 68%
    16:00 +28°C° 1.3 mm 1 mps 699 mmHg 75%
    17:00 +26°C° 1.3 mm 1 mps 699 mmHg 82%
    18:00 +25°C° 1.3 mm 1 mps 699 mmHg 89%
    19:00 +24°C° 0.9 mm 1 mps 700 mmHg 92%
    20:00 +23°C° 0.9 mm 1 mps 700 mmHg 94%
    21:00 +21°C° 0.9 mm 0 mps 700 mmHg 96%
    22:00 +20°C° 0.4 mm 0 mps 700 mmHg 96%
    23:00 +20°C° 0.4 mm 0 mps 700 mmHg 97%

    19 August, Sunday

    Time Temperature Precipitation Wind Pressure Humidity
    00:00 +20°C° 0.4 mm 0 mps 700 mmHg 97%
    01:00 +20°C° 0.2 mm 0 mps 700 mmHg 97%
    02:00 +20°C° 0.2 mm 0 mps 699 mmHg 97%
    03:00 +20°C° 0.2 mm 0 mps 699 mmHg 97%
    04:00 +20°C° 0 mm 0 mps 699 mmHg 97%
    05:00 +20°C° 0 mm 0 mps 699 mmHg 97%
    06:00 +20°C° 0 mm 0 mps 700 mmHg 97%
    07:00 +22°C° 0 mm 0 mps 700 mmHg 87%
    08:00 +24°C° 0 mm 0 mps 701 mmHg 78%
    09:00 +26°C° 0 mm 0 mps 702 mmHg 68%
    10:00 +30°C° 0.1 mm 1 mps 701 mmHg 62%
    11:00 +31°C° 0.1 mm 1 mps 701 mmHg 56%
    12:00 +32°C° 0.1 mm 1 mps 701 mmHg 49%
    13:00 +32°C° 0.3 mm 1 mps 700 mmHg 52%
    14:00 +31°C° 0.3 mm 1 mps 699 mmHg 54%
    15:00 +31°C° 0.3 mm 2 mps 698 mmHg 56%
    16:00 +29°C° 0.2 mm 1 mps 699 mmHg 64%
    17:00 +28°C° 0.2 mm 1 mps 699 mmHg 71%
    18:00 +26°C° 0.2 mm 1 mps 699 mmHg 79%
    19:00 +25°C° 0.1 mm 1 mps 699 mmHg 84%
    20:00 +24°C° 0.1 mm 1 mps 700 mmHg 89%
    21:00 +23°C° 0.1 mm 1 mps 700 mmHg 94%
    22:00 +23°C° 0.7 mm 1 mps 700 mmHg 94%
    23:00 +22°C° 0.7 mm 1 mps 700 mmHg 95%

    20 August, Monday

    Time Temperature Precipitation Wind Pressure Humidity
    00:00 +22°C° 0.7 mm 1 mps 700 mmHg 96%
    01:00 +22°C° 0.1 mm 1 mps 699 mmHg 96%
    02:00 +22°C° 0.1 mm 1 mps 699 mmHg 96%
    03:00 +22°C° 0.1 mm 1 mps 699 mmHg 96%
    04:00 +22°C° 0 mm 1 mps 699 mmHg 96%
    05:00 +21°C° 0 mm 1 mps 699 mmHg 96%
    06:00 +21°C° 0 mm 1 mps 700 mmHg 96%
    07:00 +24°C° 0 mm 1 mps 700 mmHg 85%
    08:00 +27°C° 0 mm 1 mps 701 mmHg 73%
    09:00 +29°C° 0 mm 1 mps 702 mmHg 61%
    10:00 +31°C° 0 mm 1 mps 701 mmHg 54%
    11:00 +32°C° 0 mm 1 mps 701 mmHg 46%
    12:00 +35°C° 0 mm 2 mps 701 mmHg 39%
    13:00 +34°C° 0.2 mm 2 mps 700 mmHg 42%
    14:00 +34°C° 0.2 mm 2 mps 700 mmHg 46%
    15:00 +32°C° 0.2 mm 2 mps 699 mmHg 50%
    16:00 +30°C° 2 mm 2 mps 699 mmHg 62%
    17:00 +28°C° 2 mm 1 mps 699 mmHg 74%
    18:00 +25°C° 2 mm 1 mps 700 mmHg 87%
    19:00 +25°C° 1.3 mm 1 mps 700 mmHg 89%
    20:00 +24°C° 1.3 mm 1 mps 700 mmHg 92%
    21:00 +23°C° 1.3 mm 1 mps 701 mmHg 94%
    22:00 +23°C° 0.1 mm 1 mps 700 mmHg 94%
    23:00 +23°C° 0.1 mm 1 mps 700 mmHg 95%

    21 August, Tuesday

    Time Temperature Precipitation Wind Pressure Humidity
    00:00 +22°C° 0.1 mm 1 mps 700 mmHg 95%
    01:00 +22°C° 0 mm 1 mps 700 mmHg 95%
    02:00 +22°C° 0 mm 1 mps 700 mmHg 95%
    03:00 +22°C° 0 mm 1 mps 699 mmHg 95%
    04:00 +22°C° 0 mm 1 mps 700 mmHg 95%
    05:00 +22°C° 0 mm 1 mps 700 mmHg 95%
    06:00 +22°C° 0 mm 1 mps 700 mmHg 95%
    07:00 +24°C° 0 mm 1 mps 701 mmHg 85%
    08:00 +26°C° 0 mm 1 mps 701 mmHg 75%
    09:00 +29°C° 0 mm 1 mps 702 mmHg 66%
    10:00 +28°C° 0.7 mm 1 mps 702 mmHg 69%
    11:00 +28°C° 0.7 mm 1 mps 701 mmHg 72%
    12:00 +28°C° 0.7 mm 1 mps 701 mmHg 75%
    13:00 +28°C° 1.7 mm 1 mps 700 mmHg 77%
    14:00 +29°C° 1.7 mm 1 mps 700 mmHg 79%
    15:00 +29°C° 1.7 mm 1 mps 700 mmHg 81%
    16:00 +27°C° 3 mm 1 mps 700 mmHg 86%
    17:00 +25°C° 3 mm 1 mps 700 mmHg 90%
    18:00 +24°C° 3 mm 1 mps 700 mmHg 95%
    19:00 +23°C° 2 mm 1 mps 701 mmHg 96%
    20:00 +23°C° 2 mm 1 mps 701 mmHg 97%
    21:00 +23°C° 2 mm 1 mps 701 mmHg 97%
    22:00 +21°C° 0.6 mm 0 mps 701 mmHg 97%
    23:00 +20°C° 0.6 mm 0 mps 701 mmHg 97%
    Show more